Wind_Speed
2 3 6 8 4 2 5 4 3 2 2 10 14 9 10 18 17 17 17 17 17 16 17 13 12 13 13 15 18 18 17 17 15 12 12 13 14 13 13 14 15 18 17 18
3 5 3 5 7 5 5 4 3 3 2 6 7 10 3 15 21 21 19 18 17 15 13 12 13 14 17 19 21 22 21 19 17 15 13 12 12 15 16 19 21 20 18 19
4 2 4 6 6 8 3 4 4 2 3 3 4 6 6 6 10 11 14 15 15 17 16 13 14 17 17 19 16 16 16 17 14 12 11 11 13 14 17 19 23 25 30 32
3 1 6 8 6 4 5 4 5 4 3 5 3 6 5 8 10 10 13 15 18 18 14 11 15 13 10 8 7 8 8 6 3 4 6 8 11 16 20 25 27 30 30 31
3 5 6 5 4 6 2 3 3 2 2 2 3 4 5 3 9 11 9 12 15 16 14 13 11 5 2 4 4 4 6 7 7 9 11 13 17 21 25 28 30 30 29 27
2 2 2 2 4 1 11 5 5 3 1 5 3 5 5 5 4 2 4 9 12 12 11 7 2 5 7 8 9 9 9 10 12 16 18 19 22 25 28 30 30 29 29 29
2 2 1 2 6 5 3 4 2 3 3 2 2 3 6 3 4 5 9 10 9 8 7 3 3 6 8 9 10 10 11 12 16 19 21 23 25 27 27 28 28 29 29 28
6 6 6 5 5 6 5 4 3 3 2 2 2 4 1 1 5 6 8 10 9 7 3 5 8 9 9 10 10 10 13 17 19 21 24 24 25 25 26 26 27 26 28 29
5 5 1 1 2 2 5 5 3 5 2 3 1 2 7 3 2 7 8 8 9 4 6 8 11 10 10 10 11 13 15 18 20 22 23 24 25 26 26 28 27 28 28 29
6 2 1 3 3 8 2 11 3 2 3 3 2 4 4 5 9 9 9 13 8 6 9 9 10 10 8 9 10 13 16 18 20 21 22 24 24 25 26 27 28 29 31 31
8 5 3 4 6 8 5 4 4 3 1 3 2 2 4 8 10 12 13 8 5 7 8 9 9 8 8 10 13 15 18 19 22 22 23 25 25 25 26 27 29 31 33 32
8 6 9 9 3 1 1 4 7 4 5 1 1 6 2 4 6 6 8 5 7 9 9 8 7 7 10 12 15 16 19 22 22 24 24 24 24 27 27 28 30 30 31 30
9 4 6 4 3 3 5 5 4 5 2 7 4 4 2 0 2 2 4 9 10 10 8 6 7 9 11 13 16 20 22 22 23 24 24 25 26 25 27 29 30 30 30 30
7 4 8 10 13 4 7 8 9 7 5 6 8 11 4 2 2 5 9 10 10 8 6 6 6 9 12 16 19 22 22 22 23 24 24 24 25 25 28 29 30 30 30 30
3 7 5 3 4 6 6 14 14 12 7 7 6 7 5 3 5 9 10 10 9 7 6 7 8 13 17 19 21 22 21 22 24 23 23 24 23 27 28 28 29 29 29 28
2 4 4 4 4 5 4 9 12 10 7 10 7 10 3 3 9 9 9 8 8 7 7 9 11 15 16 19 20 21 22 22 23 22 23 22 23 27 27 28 29 28 28 29
3 5 5 6 6 2 6 12 12 7 7 8 9 6 10 9 9 8 8 8 8 7 8 9 10 13 16 18 19 20 21 21 21 20 22 22 24 27 27 27 27 28 29 28
4 1 1 4 9 9 2 1 8 9 5 8 2 7 12 12 10 8 6 9 9 8 7 8 11 13 15 16 19 19 19 21 20 22 23 24 26 25 25 25 26 28 28 28
2 2 2 5 9 2 2 5 8 8 6 6 8 13 12 12 10 8 8 10 10 8 8 9 11 12 14 16 18 19 19 18 21 23 23 24 23 21 23 26 26 27 26 26
3 5 3 2 9 8 3 9 7 6 4 11 13 15 14 10 5 5 8 8 10 9 9 11 11 12 13 16 17 16 17 19 21 21 22 23 22 21 24 26 26 26 26 26
0 3 4 4 7 3 3 7 7 6 1 16 16 14 12 5 5 14 11 10 10 10 10 9 10 12 14 16 14 15 17 19 21 24 21 22 20 17 18 18 24 23 27 26
5 6 3 2 2 6 4 7 7 1 2 14 14 11 10 12 14 13 10 9 9 9 9 10 10 12 13 13 13 15 17 20 20 18 19 20 18 15 19 18 21 22 21 21
4 5 3 7 4 2 3 2 5 3 11 12 14 12 15 15 14 12 10 8 9 7 9 9 10 12 10 11 12 13 11 14 18 18 17 16 16 17 18 19 22 21 22 22
5 6 3 2 7 3 5 5 4 5 11 14 14 15 14 15 14 12 10 9 8 8 9 10 14 14 9 8 10 11 12 19 18 17 15 14 14 16 18 20 20 23 24 21
2 7 8 4 10 5 4 4 6 11 13 15 13 14 14 16 13 12 10 10 10 10 11 14 12 9 6 8 11 13 16 21 18 15 14 13 13 13 13 14 19 20 23 24
5 6 9 5 6 4 2 6 11 14 14 15 17 13 13 15 15 16 12 12 12 13 14 12 8 6 6 9 11 13 16 18 16 15 14 15 14 15 14 13 11 15 21 25
Wind_Direction
68 205 199 193 195 119 147 157 174 183 202 202 211 220 189 187 201 201 203 203 204 208 213 220 220 227 232 236 243 247 253 260 264 267 271 276 281 289 295 297 296 297 297 298
168 204 180 147 156 145 160 176 180 143 54 210 192 207 214 191 208 205 204 207 207 210 221 232 239 242 243 247 251 257 262 272 279 275 270 271 284 289 293 296 298 299 299 298
216 121 134 155 154 153 165 193 178 185 114 79 160 194 184 192 229 236 234 226 212 211 219 222 230 235 242 250 263 274 279 290 290 278 279 289 294 297 299 300 302 301 302 301
226 135 161 151 174 185 178 180 145 139 198 232 316 246 213 187 222 233 233 218 214 211 221 234 239 246 256 280 288 293 299 309 335 335 339 331 314 306 303 301 299 299 300 299
169 173 168 178 194 184 116 126 87 82 123 232 189 254 233 232 241 215 217 218 211 203 214 233 242 268 22 16 23 55 78 69 38 11 351 337 320 310 305 302 303 304 304 302
273 297 219 147 86 87 141 100 67 71 114 252 257 251 229 213 244 216 172 179 182 198 216 224 95 90 77 75 75 73 56 31 2 348 337 332 321 316 312 309 309 308 308 307
262 217 283 159 118 112 150 154 238 207 196 274 106 246 279 289 261 262 178 181 191 200 200 196 159 108 96 81 63 43 22 2 348 339 335 330 323 319 314 313 312 312 309 308
205 208 198 172 222 198 185 210 180 217 215 56 159 240 88 293 290 240 201 206 205 198 158 110 112 114 99 73 47 23 1 347 341 338 333 329 324 320 316 314 311 308 305 303
176 243 89 56 122 205 149 199 97 109 75 257 233 254 258 240 225 189 192 194 200 153 118 115 107 95 77 53 29 5 351 342 341 337 333 330 325 322 317 314 310 306 304 302
179 220 27 125 115 58 222 140 148 130 194 250 210 267 248 211 221 208 203 212 186 123 128 115 99 85 63 34 8 357 352 345 339 338 334 328 326 323 318 314 311 308 305 305
166 210 166 174 208 193 148 182 70 117 188 218 267 241 216 219 218 217 224 214 159 136 125 111 97 74 42 16 1 354 350 344 343 340 336 334 331 328 322 316 313 312 310 310
191 198 216 206 113 177 230 201 179 216 201 194 261 259 180 274 267 248 246 188 132 122 117 104 80 44 19 3 358 353 350 349 345 340 337 334 330 325 321 320 319 320 318 318
177 203 202 178 175 158 213 184 157 109 107 211 189 246 147 13 203 211 145 129 122 123 113 90 54 27 7 358 358 358 354 348 343 342 336 333 329 329 329 325 326 326 326 324
143 158 205 211 224 157 183 190 188 194 212 241 229 263 234 226 208 128 122 118 118 109 92 61 34 13 4 5 1 356 350 348 344 338 335 332 332 333 332 331 332 334 335 331
213 218 197 237 202 174 177 185 177 201 207 220 247 213 264 276 178 135 124 129 124 108 79 44 20 11 7 1 357 352 349 344 338 335 336 334 334 336 334 336 339 340 340 338
273 216 153 175 173 200 190 179 186 201 198 240 249 251 216 131 131 136 134 128 111 89 57 33 20 9 5 359 352 348 345 340 337 337 338 336 339 339 339 341 343 343 344 345
304 163 174 210 175 147 253 214 198 193 208 230 228 264 154 149 134 107 111 107 98 75 47 29 16 11 4 357 350 348 344 343 345 343 340 341 343 343 345 350 352 353 351 354
304 226 233 153 150 225 98 288 209 184 179 220 233 173 164 134 102 83 102 112 95 71 45 28 18 11 4 358 356 347 345 346 344 347 345 349 352 349 353 358 359 1 3 2
94 276 182 198 214 303 126 169 150 170 200 187 184 157 138 135 125 81 81 83 85 72 56 39 24 14 4 0 355 354 357 352 357 356 356 0 0 358 1 2 360 7 8 10
79 33 206 259 234 228 165 175 166 147 227 170 167 161 155 166 199 116 128 102 88 73 54 36 26 16 8 0 353 359 3 4 6 8 15 25 14 12 14 12 15 22 24 24
318 240 297 234 226 294 253 152 152 185 68 166 178 167 157 159 51 124 121 100 85 68 51 40 34 20 12 9 19 19 16 18 20 36 32 11 5 13 17 15 27 23 27 28
189 171 160 163 229 252 344 136 187 77 12 154 152 149 123 114 124 126 120 106 84 66 53 47 38 35 31 36 34 39 35 40 41 21 1 2 10 13 16 15 15 17 16 10
220 205 184 198 201 161 278 270 304 218 161 150 140 131 132 135 136 134 123 107 88 76 67 53 55 62 65 55 46 37 16 7 2 4 8 18 27 27 23 22 18 19 22 19
222 190 227 190 248 271 260 228 235 221 146 137 131 135 141 136 140 133 128 118 108 89 79 83 91 95 69 37 25 16 9 6 5 9 18 26 26 25 29 33 30 30 22 19
255 174 213 230 268 312 295 238 202 145 128 122 126 136 139 139 141 138 133 128 116 108 107 110 104 89 47 19 26 18 12 15 11 13 22 21 19 22 27 38 42 43 41 41
209 224 211 236 208 273 358 175 175 140 141 135 129 126 138 141 140 140 134 132 133 131 127 119 106 76 26 13 22 16 20 24 18 21 21 21 21 21 20 19 26 36 39 40
Height
787 791 795 788 792 793 796 800 803 801 797 799 798 799 800 803 806 807 808 809 811 812 812 815 817 817 817 816 816 815 815 815 815 816 815 814 813 811 809 807 804 802 799 797
791 792 785 788 792 793 797 801 802 801 799 798 801 802 801 802 799 797 801 805 807 810 810 813 814 814 813 813 813 813 814 814 814 813 812 811 809 808 805 802 800 797 795 792
790 785 785 787 794 795 799 799 803 800 801 802 802 806 807 805 803 801 800 801 805 806 807 809 811 811 811 810 811 812 813 812 811 810 810 809 807 805 802 799 795 792 787 784
785 781 786 787 792 791 802 794 797 801 803 811 809 812 805 804 803 801 796 797 798 801 804 806 806 807 809 811 810 810 811 811 811 810 809 808 806 803 800 795 790 785 781 776
785 784 786 789 786 788 796 794 800 804 807 812 813 814 793 805 796 794 798 796 794 796 800 801 803 806 809 810 810 811 811 811 811 810 809 807 804 801 795 790 784 779 773 769
783 778 778 778 788 787 796 801 809 812 812 822 810 812 796 795 792 793 794 794 794 794 797 800 805 808 810 812 813 813 813 812 811 809 808 805 802 796 790 784 778 772 768 763
789 784 779 777 788 793 794 800 819 824 825 822 822 820 795 794 793 792 793 793 793 794 796 801 806 809 812 814 814 813 813 813 811 809 805 801 797 792 785 780 774 769 763 758
798 804 782 777 779 786 795 796 821 839 828 819 825 817 797 794 791 791 789 789 791 795 799 805 808 811 814 815 815 815 815 813 810 806 802 798 794 789 783 777 772 766 760 754
798 796 779 780 781 782 802 804 802 824 839 827 811 806 791 790 790 790 791 792 792 796 802 806 811 813 815 816 817 817 815 812 808 804 799 795 791 785 779 773 767 761 755 748
780 796 785 786 780 788 788 796 810 814 833 829 813 817 800 794 788 787 790 789 792 800 803 808 812 814 816 817 817 816 813 810 806 802 797 793 786 780 774 768 762 755 749 742
773 781 791 786 786 786 796 796 807 806 815 823 824 806 786 784 780 782 781 784 792 798 803 808 812 816 817 817 816 814 811 808 803 799 794 788 782 776 770 764 757 750 743 736
769 774 786 782 785 784 785 785 788 801 816 827 824 808 784 786 784 785 783 787 794 799 806 810 814 816 817 817 815 813 809 804 801 796 790 785 779 773 766 759 752 746 738 731
772 782 790 790 788 787 785 788 791 799 803 811 821 801 785 786 785 784 786 792 798 803 808 811 814 816 817 817 813 809 806 803 799 793 789 783 777 770 763 756 749 742 735 727
765 780 772 788 769 770 785 787 789 787 799 793 803 787 780 785 785 790 792 796 799 804 810 813 815 817 817 814 811 809 806 803 798 793 787 781 775 768 761 754 747 739 732 724
770 771 776 773 772 772 773 775 784 787 787 793 784 792 779 785 786 791 795 798 802 807 812 815 816 816 814 813 812 810 807 802 797 792 786 780 774 767 759 753 745 737 730 723
775 773 773 779 776 773 775 774 778 781 785 786 787 789 782 788 789 792 795 799 805 810 814 816 817 818 817 816 814 811 807 802 797 792 786 780 773 766 759 752 744 737 729 721
781 778 775 777 777 781 786 774 777 777 776 776 785 774 782 789 790 795 799 802 808 813 816 819 821 821 821 819 816 811 807 802 797 792 785 779 773 766 759 752 745 738 730 723
781 780 775 782 782 793 765 767 764 772 778 778 782 781 780 787 799 802 802 806 811 816 821 824 824 824 823 819 815 811 807 802 797 791 785 780 773 768 761 754 748 741 733 726
781 782 783 780 782 769 774 772 772 768 778 777 778 780 786 794 796 808 812 814 817 822 825 826 826 825 823 819 816 812 807 803 797 792 786 781 776 771 763 757 751 744 737 731
775 781 785 791 776 780 759 760 759 760 777 772 774 779 785 789 788 798 815 819 822 825 826 827 827 826 823 820 816 813 809 804 798 794 789 784 779 773 767 761 754 748 742 736
782 789 793 786 773 768 762 759 759 778 770 765 771 777 783 786 794 806 817 822 825 826 827 828 828 826 824 821 817 814 810 805 801 797 792 786 782 776 771 766 758 753 747 740
785 795 799 799 796 792 763 764 769 764 765 764 772 778 786 796 806 811 818 822 825 827 829 829 828 826 825 823 820 816 812 808 803 798 793 789 785 780 774 770 763 758 753 746
783 777 783 782 779 773 766 766 765 763 763 769 773 781 789 798 805 812 818 823 827 829 829 830 828 828 827 825 822 818 814 809 804 800 796 792 788 784 779 774 769 764 759 754
771 772 775 777 766 765 764 765 767 766 762 768 775 782 789 796 806 813 819 824 827 828 830 829 829 829 828 826 823 820 816 811 806 802 798 795 791 787 784 780 777 772 767 762
766 769 767 770 764 763 761 764 766 767 768 773 780 784 791 798 806 812 819 824 826 829 831 831 831 830 829 827 824 821 817 812 808 805 801 797 794 791 788 786 784 780 778 772
762 761 764 760 757 762 766 765 768 767 771 775 780 789 797 800 806 813 819 823 826 829 831 832 833 832 830 828 825 822 818 815 811 807 804 801 798 794 792 789 787 785 782 778